Location: Logan
(41.7360°N, 111.8340°W)
Time: 01:06:20
(UTC-07:00)

Daily predictions for brighter satellites

Satellite Brightness Start Highest point End
(mag) Time Altitude Azimuth Time Altitude Azimuth Time Altitude Azimuth
USA 229 DEB 4.2 04:38:23 56° NE 04:38:47 56° NE 04:45:53 10° SE
USA 229 4.2 04:38:26 55° NE 04:38:53 56° NE 04:45:58 10° SE
Cosmos 2237 Rocket 3.6 05:04:42 27° S 05:04:42 27° S 05:07:09 10° SSE
SL-16 R/B 2.7 05:04:45 50° NNE 05:05:37 55° ENE 05:11:10 10° SE
Cosmos 2297 Rocket 2.5 05:15:15 54° N 05:15:15 54° N 05:19:37 10° NNE
Feng Yun 1-1 Rocket 4.4 05:09:32 10° NNE 05:14:03 63° NNE 05:14:03 63° NNE
COSMO-SKYMED 1 3.6 05:11:56 10° SE 05:16:03 43° ENE 05:16:42 40° NE
Cosmos 2233 Rocket 4.3 05:15:16 10° S 05:21:25 66° E 05:27:40 10° NNE
Cosmos 2227 Rocket 3.2 05:28:45 32° N 05:28:45 32° N 05:32:04 10° NNE
USA 234 4.2 05:21:23 10° E 05:27:20 39° NNE 05:30:20 25° NNW
Cosmos 1500 Rocket 4.0 05:29:45 43° NNE 05:31:00 62° E 05:35:24 10° SSE
NOSS 3-1 (C) 4.5 05:28:35 22° NNW 05:33:36 58° NE 05:41:44 10° SE
Ariane Rocket 4.2 05:32:52 10° NNE 05:37:45 43° E 05:42:35 10° S
Cosmos 220 Rocket 4.0 05:38:38 52° S 05:39:40 81° ESE 05:44:04 10° NNE
Cosmos 1816 Rocket 4.4 05:34:01 10° NNW 05:40:20 73° W 05:46:32 10° S
BREEZE-M DEB (TANK) 4.4 05:34:25 28° WNW 05:43:52 68° SW 05:48:58 10° SE
Cosmos 2346 Rocket 4.3 05:39:51 10° N 05:46:02 90° NE 05:52:06 10° S
SKYMED 3 4.4 05:41:42 10° SSE 05:46:03 87° W 05:47:06 51° NNW
Tsikada Rocket 4.2 05:49:34 28° NNW 05:52:37 48° W 05:58:36 10° SSW
DMSP B5D1-3 4.5 05:49:17 10° SSE 05:54:25 87° ENE 05:59:33 10° NNW
CZ-4 R/B 3.9 05:53:49 10° NE 05:57:07 24° E 06:00:28 10° SSE
SeaSat 1 4.1 06:00:14 10° N 06:02:07 18° NNW 06:02:07 18° NNW
SKYMED 2 3.6 05:59:52 10° S 06:04:07 55° W 06:05:21 40° NW
Cosmos 968 Rocket 3.4 06:02:45 10° SSW 06:07:57 62° WNW 06:13:12 10° NNE
Cosmos 1603 4.0 06:04:09 11° NNW 06:09:37 67° ENE 06:15:14 10° SSE
Cosmos 1464 Rocket 4.2 06:05:38 10° S 06:11:57 74° E 06:18:14 10° N
NOAA 6 4.4 06:09:35 10° N 06:14:26 41° WNW 06:19:17 10° SW
Cosmos 1328 4.1 06:16:15 35° NW 06:17:17 44° W 06:21:04 10° SSW
Cosmos 773 Rocket 4.0 06:12:57 10° NNW 06:18:17 85° ENE 06:23:35 10° SSE
Meteor 2-12 Rocket 4.5 06:14:53 10° S 06:21:01 85° E 06:27:13 10° N
ISS -2.9 06:21:28 41° WSW 06:22:02 46° SW 06:25:09 10° SE
Cosmos 304 Rocket 4.4 06:22:03 28° WNW 06:23:36 35° WSW 06:27:55 10° SSW
Cosmos 2221 2.4 06:21:43 10° S 06:26:04 85° W 06:30:25 10° N
USA 229 DEB 4.5 06:25:53 21° WNW 06:29:28 33° WSW 06:35:45 10° S
USA 229 4.5 06:25:56 21° WNW 06:29:34 33° WSW 06:35:52 10° S
OAO 2 Rocket 4.4 06:27:30 17° WSW 06:30:34 33° S 06:34:59 10° SE
Genesis I 3.1 06:28:50 20° NNW 06:31:32 89° WSW 06:35:26 10° SSE
Cosmos 1072 Rocket 4.4 06:25:38 10° SSW 06:31:47 72° W 06:37:56 10° N
Cosmos 1184 Rocket 3.8 06:29:13 10° N 06:32:26 47° ENE 06:35:38 10° SSE
Cosmos 2058 3.0 06:28:52 10° NNW 06:32:54 54° W 06:36:56 10° S
CSL-04 Rocket 3.5 06:29:42 10° N 06:34:59 69° WNW 06:40:12 10° SSW
Cosmos 2227 4.1 06:32:50 10° SSW 06:38:25 68° WNW 06:44:03 10° NNE
Aureole 1 4.2 06:36:07 10° SSW 06:39:08 65° WNW 06:42:42 10° NNE
Cosmos 1777 Rocket 4.0 06:36:45 10° SSW 06:41:54 59° WNW 06:47:03 10° NNE
NOSS 3-1 (A) 4.1 06:35:56 10° NW 06:43:37 79° WSW 06:52:00 10° SSE
SL-8 R/B 3.8 06:41:56 17° WNW 06:45:34 71° NNE 06:50:22 10° ESE
Cosmos 1703 3.2 06:42:29 10° NNW 06:46:23 65° W 06:50:16 10° S
PSLV R/B 3.7 06:44:07 14° WSW 06:46:57 58° SSE 06:50:16 10° E
SL-16 R/B 3.4 06:46:41 16° WNW 06:49:16 21° W 06:53:23 10° SSW
DELTA 2 R/B (1) 4.4 06:44:25 10° SW 06:49:45 49° SSE 06:55:07 10° E
ATLAS 2AS CENTAUR R/B 3.9 06:44:37 10° NNW 06:52:23 46° NE 06:59:39 10° ESE
COSMO-SKYMED 1 4.1 06:49:35 10° SW 06:52:24 17° W 06:53:55 14° WNW
ERBS 2.9 06:51:26 17° WNW 06:53:42 40° SW 06:56:54 10° SSE
Helios 1B rocket 2.8 06:50:00 10° SSE 06:54:04 66° ENE 06:58:08 10° N
Cosmos 2151 4.1 06:52:55 10° NW 06:56:13 22° W 06:59:30 10° SW
IDEFIX/ARIANE 42P 2.6 06:51:48 10° NNE 06:57:06 83° WNW 07:02:22 10° SSW
Cosmos 2228 Rocket 3.8 06:52:47 10° S 06:57:09 59° E 07:01:30 10° NNE
Cosmos 1356 Rocket 3.5 06:53:19 10° NNW 06:57:20 56° W 07:01:24 10° S
AQUARIUS 4.1 06:54:02 10° NNE 06:58:33 86° WNW 07:03:03 10° SSW
Cosmos 2297 Rocket 3.8 06:57:08 12° WNW 06:58:54 14° NW 07:01:51 10° NNW
SJ-7 4.3 06:55:22 10° NNE 06:59:23 86° WNW 07:03:26 10° SSW
Cosmos 1340 Rocket 3.8 06:56:19 10° NW 06:59:38 26° W 07:02:56 10° SSW
Cosmos 1805 Rocket 3.8 06:56:48 10° NNW 07:01:02 46° W 07:05:14 10° SSW
Cosmos 1271 Rocket 3.9 06:59:13 10° SW 07:02:12 21° WNW 07:05:10 10° NNW
TELKOM 3 3.7 07:02:47 12° W 07:04:50 33° NNW 07:06:50 10° NE
Meteor 1-29 3.4 07:02:37 10° SSE 07:06:04 67° ENE 07:09:34 10° N
CZ-3 Stage 3 4.2 07:01:30 10° WSW 07:06:42 33° S 07:26:12 10° ESE
USA 234 3.3 07:03:25 10° SE 07:09:59 80° SW 07:16:36 10° NW
EP 2 4.3 07:11:01 10° SSW 07:13:36 81° SE 07:16:20 10° NE
Cosmos 923 Rocket 4.4 07:10:01 10° NNW 07:14:58 43° WSW 07:19:54 10° S
Cosmos 1484 Rocket 3.1 07:11:03 10° NNE 07:15:05 75° ESE 07:19:03 10° S
SJ-12 4.3 07:12:24 10° N 07:16:14 39° WNW 07:20:01 10° SW
Ariane Rocket 4.0 07:12:25 10° NNW 07:16:25 24° WNW 07:20:26 10° WSW
Cosmos 1626 2.8 07:13:25 10° NNW 07:16:49 33° W 07:20:12 10° SSW
MONITOR-E 4.1 07:16:05 10° N 07:19:16 80° WNW 07:22:25 10° SSW
Cosmos 292 Rocket 4.2 07:14:52 10° NNW 07:19:22 42° WSW 07:23:52 10° S
